This demonstration page uses our WeatherBlox Daily Observations layout. Learn more.

36.19886, -115.1175

Hourly Observations for July 7, 2020

Temp ( °F °C ) Dew Point ( °F °C ) Humidity (%) Winds ( mph kmh ) Pressure ( in mb ) Visibility ( mi km ) Precip ( " mm )
12:53 am 00:53 Clear 92 33.3 31 -0.6 11 11 SSW 9 15 29.72 1007 10 16.0934 0 0
1:53 am 01:53 Clear 91 32.8 30 -1.1 11 11 SSW 14 22 29.73 1007 10 16.0934 0 0
2:53 am 02:53 Clear 90 32.2 27 -2.8 10 10 SSW 13 20 29.72 1007 10 16.0934 0 0
3:53 am 03:53 Clear 88 31.1 28 -2.2 11 11 SSW 10 17 29.72 1006 10 16.0934 0 0
4:53 am 04:53 Clear 87 30.6 27 -2.8 11 11 S 6 9 29.73 1007 10 16.0934 0 0
5:53 am 05:53 Sunny 84 28.9 28 -2.2 13 13 ESE 7 11 29.75 1007 10 16.0934 0 0
6:53 am 06:53 Sunny 86 30 30 -1.1 13 13 VRB 3 6 29.76 1008 10 16.0934 0 0
7:53 am 07:53 Sunny 90 32.2 26 -3.3 10 10 S 9 15 29.77 1008 10 16.0934 0 0
8:53 am 08:53 Sunny 95 35 22 -5.6 7 7 S 17 28 29.77 1008 10 16.0934 0 0
9:53 am 09:53 Sunny 99 37.2 21 -6.1 6 6 S 16 26 29.76 1008 10 16.0934 0 0
10:53 am 10:53 Sunny 101 38.3 21 -6.1 6 6 S 17 28 29.77 1008 10 16.0934 0 0
11:53 am 11:53 Sunny 102 38.9 21 -6.1 5 5 S 20 31 29.77 1008 10 16.0934 0 0
12:53 pm 12:53 Sunny 103 39.4 19 -7.2 5 5 S 24 39 29.75 1007 10 16.0934 0 0
1:53 pm 13:53 Sunny 105 40.6 15 -9.4 4 4 SSW 22 35 29.72 1007 10 16.0934 0 0
2:53 pm 14:53 Sunny 107 41.7 13 -10.6 3 3 SW 20 31 29.71 1006 10 16.0934 0 0
3:53 pm 15:53 Sunny 106 41.1 10 -12.2 3 3 S 21 33 29.69 1005 10 16.0934 0 0
4:53 pm 16:53 Sunny 106 41.1 8 -13.3 3 3 SSW 18 30 29.67 1005 10 16.0934 0 0
5:53 pm 17:53 Sunny 105 40.6 11 -11.7 3 3 SW 15 24 29.67 1005 10 16.0934 0 0
6:53 pm 18:53 Sunny 103 39.4 10 -12.2 3 3 SSW 17 28 29.67 1005 10 16.0934 0 0
7:53 pm 19:53 Sunny 101 38.3 16 -8.9 4 4 SSW 17 28 29.67 1005 10 16.0934 0 0
8:53 pm 20:53 Clear 99 37.2 19 -7.2 5 5 SSW 13 20 29.67 1005 10 16.0934 0 0
9:53 pm 21:53 Clear 96 35.6 20 -6.7 6 6 W 6 9 29.7 1006 10 16.0934 0 0
10:53 pm 22:53 Clear 94 34.4 22 -5.6 7 7 W 6 9 29.7 1006 10 16.0934 0 0
11:53 pm 23:53 Clear 92 33.3 22 -5.6 8 8 SW 8 13 29.7 1006 10 16.0934 0 0

Powered by AerisWeather